owner,sensor,date,latitude,longitude,vertical_datum,sea_water_temperature,qcFlag
BP,ioos:station:wmo:42369:3,2021-04-01T01:20:00Z,27.2040,-90.2908,461.7,67.5,11144222
BP,ioos:station:wmo:42369:3,2021-04-01T01:40:00Z,27.2040,-90.2908,462.2,67.5,11144222
BP,ioos:station:wmo:42369:3,2021-04-01T02:20:00Z,27.2039,-90.2909,462.4,67.5,11144222
BP,ioos:station:wmo:42369:3,2021-04-01T05:20:00Z,27.2028,-90.2913,472.7,67.6,11144222
BP,ioos:station:wmo:42369:3,2021-04-01T10:20:00Z,27.2020,-90.2919,493.3,67.6,11144222
BP,ioos:station:wmo:42369:3,2021-04-01T21:40:00Z,27.2027,-90.2910,478.5,67.6,11144222
BP,ioos:station:wmo:42369:3,2021-04-01T22:40:00Z,27.2027,-90.2910,474.9,67.5,11144222
BP,ioos:station:wmo:42369:3,2021-04-01T23:00:00Z,27.2026,-90.2910,474.5,67.6,11144222
BP,ioos:station:wmo:42369:3,2021-04-02T00:20:00Z,27.2022,-90.2913,471.4,67.6,11144222
BP,ioos:station:wmo:42369:3,2021-04-02T04:20:00Z,27.2028,-90.2909,467.2,67.5,11144222
BP,ioos:station:wmo:42369:3,2021-04-02T05:00:00Z,27.2026,-90.2909,468.5,67.5,11144222
BP,ioos:station:wmo:42369:3,2021-04-02T07:40:00Z,27.2038,-90.2920,474.3,67.6,11144222
BP,ioos:station:wmo:42369:3,2021-04-02T08:20:00Z,27.2039,-90.2920,474.5,67.5,11144222
BP,ioos:station:wmo:42369:3,2021-04-02T09:00:00Z,27.2023,-90.2912,476.1,67.5,11144222
BP,ioos:station:wmo:42369:3,2021-04-02T09:40:00Z,27.2023,-90.2913,477.2,67.6,11144222
BP,ioos:station:wmo:42369:3,2021-04-02T11:00:00Z,27.2046,-90.2917,477.8,67.5,11144222
BP,ioos:station:wmo:42369:3,2021-04-02T11:20:00Z,27.2046,-90.2917,477.3,67.5,11144222
BP,ioos:station:wmo:42369:3,2021-04-02T11:40:00Z,27.2047,-90.2916,475.7,67.5,11144222
BP,ioos:station:wmo:42369:3,2021-04-02T12:00:00Z,27.2047,-90.2916,476.4,67.5,11144222
BP,ioos:station:wmo:42369:3,2021-04-02T12:20:00Z,27.2047,-90.2916,475.2,67.5,11144222
BP,ioos:station:wmo:42369:3,2021-04-02T12:40:00Z,27.2046,-90.2917,474.7,67.5,11144222
BP,ioos:station:wmo:42369:3,2021-04-02T13:00:00Z,27.2046,-90.2917,475.7,67.5,11144222
BP,ioos:station:wmo:42369:3,2021-04-02T13:20:00Z,27.2025,-90.2914,474.9,67.5,11144222
BP,ioos:station:wmo:42369:3,2021-04-02T13:40:00Z,27.2026,-90.2914,473.7,67.5,11144222
BP,ioos:station:wmo:42369:3,2021-04-02T14:00:00Z,27.2026,-90.2915,474.2,67.5,11144222
BP,ioos:station:wmo:42369:3,2021-04-02T14:40:00Z,27.2047,-90.2917,473.1,67.5,11144222
BP,ioos:station:wmo:42369:3,2021-04-02T15:00:00Z,27.2047,-90.2916,473.6,67.5,11144222
BP,ioos:station:wmo:42369:3,2021-04-02T15:20:00Z,27.2047,-90.2916,473.0,67.5,11144222
BP,ioos:station:wmo:42369:3,2021-04-02T15:40:00Z,27.2047,-90.2916,472.6,67.5,11144222
BP,ioos:station:wmo:42369:3,2021-04-02T16:00:00Z,27.2048,-90.2916,471.7,67.5,11144222
BP,ioos:station:wmo:42369:3,2021-04-02T18:20:00Z,27.2039,-90.2920,473.0,67.5,11144222
BP,ioos:station:wmo:42369:3,2021-04-02T19:00:00Z,27.2043,-90.2919,471.5,67.6,11144222
BP,ioos:station:wmo:42369:3,2021-04-02T19:40:00Z,27.2048,-90.2916,469.7,67.5,11144222
BP,ioos:station:wmo:42369:3,2021-04-02T20:00:00Z,27.2048,-90.2916,467.7,67.6,11144222
BP,ioos:station:wmo:42369:3,2021-04-02T20:20:00Z,27.2048,-90.2916,468.5,67.6,11144222
BP,ioos:station:wmo:42369:3,2021-04-02T20:40:00Z,27.2048,-90.2915,467.8,67.6,11144222
BP,ioos:station:wmo:42369:3,2021-04-02T21:00:00Z,27.2047,-90.2915,466.0,67.6,11144222
BP,ioos:station:wmo:42369:3,2021-04-02T22:00:00Z,27.2046,-90.2917,465.7,67.6,11144222
BP,ioos:station:wmo:42369:3,2021-04-02T22:20:00Z,27.2046,-90.2917,464.6,67.6,11144222
BP,ioos:station:wmo:42369:3,2021-04-02T22:40:00Z,27.2048,-90.2916,464.7,67.6,11144222
BP,ioos:station:wmo:42369:3,2021-04-02T23:20:00Z,27.2048,-90.2915,464.4,67.6,11144222
BP,ioos:station:wmo:42369:3,2021-04-02T23:40:00Z,27.2047,-90.2915,463.0,67.6,11144222
BP,ioos:station:wmo:42369:3,2021-04-03T00:20:00Z,27.2045,-90.2914,462.2,67.6,11144222
BP,ioos:station:wmo:42369:3,2021-04-03T02:20:00Z,27.2041,-90.2913,461.5,67.6,11144222
BP,ioos:station:wmo:42369:3,2021-04-03T02:40:00Z,27.2041,-90.2913,461.7,67.5,11144222
BP,ioos:station:wmo:42369:3,2021-04-03T09:20:00Z,27.2036,-90.2914,468.6,67.6,11144222
BP,ioos:station:wmo:42369:3,2021-04-03T13:20:00Z,27.2038,-90.2915,469.2,67.6,11144222
BP,ioos:station:wmo:42369:3,2021-04-03T13:40:00Z,27.2039,-90.2915,467.9,67.6,11144222
BP,ioos:station:wmo:42369:3,2021-04-03T16:20:00Z,27.2043,-90.2916,466.8,67.6,11144222
BP,ioos:station:wmo:42369:3,2021-04-03T18:20:00Z,27.2045,-90.2919,467.2,67.5,11144222
BP,ioos:station:wmo:42369:3,2021-04-03T18:40:00Z,27.2046,-90.2919,466.9,67.6,11144222
BP,ioos:station:wmo:42369:3,2021-04-03T22:40:00Z,27.2048,-90.2917,464.7,67.6,11144222
BP,ioos:station:wmo:42369:3,2021-04-04T15:20:00Z,27.2040,-90.2915,465.7,67.6,11144222
BP,ioos:station:wmo:42369:3,2021-04-04T19:20:00Z,27.2044,-90.2916,462.8,67.6,11144222
BP,ioos:station:wmo:42369:3,2021-04-04T19:40:00Z,27.2044,-90.2916,463.5,67.6,11144222
BP,ioos:station:wmo:42369:3,2021-04-04T20:00:00Z,27.2044,-90.2916,462.4,67.7,11144222
BP,ioos:station:wmo:42369:3,2021-04-04T20:40:00Z,27.2043,-90.2916,463.1,67.6,11144222
BP,ioos:station:wmo:42369:3,2021-04-04T21:20:00Z,27.2044,-90.2916,463.0,67.6,11144222
BP,ioos:station:wmo:42369:3,2021-04-04T21:40:00Z,27.2043,-90.2916,462.7,67.6,11144222
BP,ioos:station:wmo:42369:3,2021-04-04T22:20:00Z,27.2043,-90.2916,462.7,67.6,11144222
BP,ioos:station:wmo:42369:3,2021-04-04T22:40:00Z,27.2043,-90.2916,461.8,67.6,11144222
BP,ioos:station:wmo:42369:3,2021-04-04T23:40:00Z,27.2044,-90.2915,461.2,67.6,11144222
BP,ioos:station:wmo:42369:3,2021-04-05T00:00:00Z,27.2044,-90.2915,461.6,67.6,11144222
BP,ioos:station:wmo:42369:3,2021-04-05T00:20:00Z,27.2044,-90.2915,461.9,67.6,11144222
BP,ioos:station:wmo:42369:3,2021-04-05T00:40:00Z,27.2043,-90.2915,462.7,67.6,11144222
BP,ioos:station:wmo:42369:3,2021-04-05T01:20:00Z,27.2043,-90.2914,462.5,67.6,11144222
BP,ioos:station:wmo:42369:3,2021-04-05T01:40:00Z,27.2043,-90.2914,460.5,67.6,11144222
BP,ioos:station:wmo:42369:3,2021-04-05T02:20:00Z,27.2043,-90.2913,460.6,67.6,11144222
BP,ioos:station:wmo:42369:3,2021-04-05T02:40:00Z,27.2042,-90.2913,460.7,67.6,11144222
BP,ioos:station:wmo:42369:3,2021-04-05T03:20:00Z,27.2040,-90.2912,459.6,67.6,11144222
BP,ioos:station:wmo:42369:3,2021-04-05T03:40:00Z,27.2040,-90.2912,460.1,67.6,11144222
BP,ioos:station:wmo:42369:3,2021-04-05T04:20:00Z,27.2039,-90.2911,460.3,67.6,11144222
BP,ioos:station:wmo:42369:3,2021-04-05T04:40:00Z,27.2038,-90.2910,461.2,67.6,11144222
BP,ioos:station:wmo:42369:3,2021-04-05T05:20:00Z,27.2037,-90.2909,459.7,67.6,11144222
BP,ioos:station:wmo:42369:3,2021-04-05T05:40:00Z,27.2038,-90.2909,460.0,67.6,11144222
BP,ioos:station:wmo:42369:3,2021-04-05T06:40:00Z,27.2037,-90.2909,461.0,67.6,11144222
BP,ioos:station:wmo:42369:3,2021-04-05T07:00:00Z,27.2037,-90.2909,461.6,67.6,11144222
BP,ioos:station:wmo:42369:3,2021-04-05T07:40:00Z,27.2038,-90.2909,460.2,67.6,11144222
BP,ioos:station:wmo:42369:3,2021-04-05T08:40:00Z,27.2040,-90.2910,462.1,67.6,11144222
BP,ioos:station:wmo:42369:3,2021-04-05T09:20:00Z,27.2041,-90.2911,463.1,67.6,11144222
BP,ioos:station:wmo:42369:3,2021-04-05T09:40:00Z,27.2041,-90.2911,464.0,67.6,11144222
BP,ioos:station:wmo:42369:3,2021-04-05T10:20:00Z,27.2042,-90.2911,462.9,67.6,11144222
BP,ioos:station:wmo:42369:3,2021-04-05T10:40:00Z,27.2043,-90.2911,463.3,67.6,11144222
BP,ioos:station:wmo:42369:3,2021-04-05T11:00:00Z,27.2043,-90.2911,464.1,67.6,11144222
BP,ioos:station:wmo:42369:3,2021-04-05T11:40:00Z,27.2044,-90.2912,463.8,67.6,11144222
BP,ioos:station:wmo:42369:3,2021-04-05T12:00:00Z,27.2044,-90.2912,463.5,67.6,11144222
BP,ioos:station:wmo:42369:3,2021-04-05T12:20:00Z,27.2045,-90.2912,464.9,67.6,11144222
BP,ioos:station:wmo:42369:3,2021-04-05T12:40:00Z,27.2045,-90.2913,464.3,67.6,11144222
BP,ioos:station:wmo:42369:3,2021-04-05T13:00:00Z,27.2046,-90.2913,464.5,67.6,11144222
BP,ioos:station:wmo:42369:3,2021-04-05T13:20:00Z,27.2046,-90.2913,464.3,67.6,11144222
BP,ioos:station:wmo:42369:3,2021-04-05T13:40:00Z,27.2047,-90.2913,464.4,67.6,11144222
BP,ioos:station:wmo:42369:3,2021-04-05T14:00:00Z,27.2047,-90.2913,465.2,67.6,11144222
BP,ioos:station:wmo:42369:3,2021-04-05T14:20:00Z,27.2047,-90.2913,464.7,67.6,11144222
BP,ioos:station:wmo:42369:3,2021-04-05T14:40:00Z,27.2048,-90.2914,465.7,67.6,11144222
BP,ioos:station:wmo:42369:3,2021-04-05T15:00:00Z,27.2048,-90.2914,465.9,67.6,11144222
BP,ioos:station:wmo:42369:3,2021-04-05T15:20:00Z,27.2049,-90.2914,465.8,67.6,11144222
BP,ioos:station:wmo:42369:3,2021-04-05T15:40:00Z,27.2049,-90.2915,466.3,67.6,11144222
BP,ioos:station:wmo:42369:3,2021-04-05T16:00:00Z,27.2050,-90.2915,463.9,67.6,11144222
BP,ioos:station:wmo:42369:3,2021-04-05T16:20:00Z,27.2050,-90.2915,464.8,67.6,11144222
BP,ioos:station:wmo:42369:3,2021-04-05T16:40:00Z,27.2050,-90.2916,465.5,67.6,11144222
BP,ioos:station:wmo:42369:3,2021-04-05T17:00:00Z,27.2051,-90.2916,464.6,67.6,11144222
BP,ioos:station:wmo:42369:3,2021-04-05T17:40:00Z,27.2053,-90.2916,465.6,67.6,11144222
BP,ioos:station:wmo:42369:3,2021-04-05T18:00:00Z,27.2054,-90.2916,464.2,67.6,11144222
BP,ioos:station:wmo:42369:3,2021-04-05T18:20:00Z,27.2055,-90.2916,464.7,67.6,11144222
BP,ioos:station:wmo:42369:3,2021-04-05T18:40:00Z,27.2056,-90.2916,464.0,67.6,11144222
BP,ioos:station:wmo:42369:3,2021-04-05T19:00:00Z,27.2057,-90.2915,463.0,67.7,11144222
BP,ioos:station:wmo:42369:3,2021-04-05T19:20:00Z,27.2059,-90.2915,461.7,67.6,11144222
BP,ioos:station:wmo:42369:3,2021-04-05T19:40:00Z,27.2059,-90.2914,461.2,67.6,11144222
BP,ioos:station:wmo:42369:3,2021-04-05T20:00:00Z,27.2061,-90.2914,460.7,67.7,11144222
BP,ioos:station:wmo:42369:3,2021-04-05T20:20:00Z,27.2061,-90.2913,459.9,67.7,11144222
BP,ioos:station:wmo:42369:3,2021-04-05T20:40:00Z,27.2062,-90.2913,459.1,67.7,11144222
BP,ioos:station:wmo:42369:3,2021-04-05T21:00:00Z,27.2063,-90.2913,459.1,67.6,11144222
BP,ioos:station:wmo:42369:3,2021-04-05T21:20:00Z,27.2064,-90.2913,459.0,67.6,11144222
BP,ioos:station:wmo:42369:3,2021-04-05T21:40:00Z,27.2065,-90.2913,458.2,67.6,11144222
BP,ioos:station:wmo:42369:3,2021-04-05T22:00:00Z,27.2066,-90.2913,458.5,67.6,11144222
BP,ioos:station:wmo:42369:3,2021-04-05T22:20:00Z,27.2066,-90.2912,458.9,67.7,11144222
BP,ioos:station:wmo:42369:3,2021-04-05T22:40:00Z,27.2067,-90.2912,458.0,67.6,11144222
BP,ioos:station:wmo:42369:3,2021-04-05T23:00:00Z,27.2068,-90.2912,459.4,67.6,11144222
BP,ioos:station:wmo:42369:3,2021-04-05T23:40:00Z,27.2071,-90.2912,458.9,67.6,11144222
BP,ioos:station:wmo:42369:3,2021-04-06T00:00:00Z,27.2072,-90.2912,457.9,67.6,11144222
BP,ioos:station:wmo:42369:3,2021-04-06T00:20:00Z,27.2072,-90.2912,458.2,67.6,11144222
BP,ioos:station:wmo:42369:3,2021-04-06T00:40:00Z,27.2072,-90.2912,458.6,67.6,11144222
BP,ioos:station:wmo:42369:3,2021-04-06T01:00:00Z,27.2073,-90.2912,459.0,67.5,11144222
BP,ioos:station:wmo:42369:3,2021-04-06T01:20:00Z,27.2074,-90.2912,458.1,67.5,11144222
BP,ioos:station:wmo:42369:3,2021-04-06T01:40:00Z,27.2073,-90.2912,459.3,67.6,11144222
BP,ioos:station:wmo:42369:3,2021-04-06T02:00:00Z,27.2073,-90.2912,458.7,67.5,11144222
BP,ioos:station:wmo:42369:3,2021-04-06T02:20:00Z,27.2072,-90.2912,458.3,67.6,11144222
BP,ioos:station:wmo:42369:3,2021-04-06T02:40:00Z,27.2072,-90.2911,459.1,67.5,11144222
BP,ioos:station:wmo:42369:3,2021-04-06T03:00:00Z,27.2071,-90.2911,458.7,67.6,11144222
BP,ioos:station:wmo:42369:3,2021-04-06T03:20:00Z,27.2070,-90.2912,459.3,67.6,11144222
BP,ioos:station:wmo:42369:3,2021-04-06T03:40:00Z,27.2070,-90.2911,459.6,67.6,11144222
BP,ioos:station:wmo:42369:3,2021-04-06T04:00:00Z,27.2069,-90.2911,460.5,67.6,11144222
BP,ioos:station:wmo:42369:3,2021-04-06T04:20:00Z,27.2069,-90.2911,460.6,67.6,11144222
BP,ioos:station:wmo:42369:3,2021-04-06T04:40:00Z,27.2068,-90.2911,459.1,67.6,11144222
BP,ioos:station:wmo:42369:3,2021-04-06T05:00:00Z,27.2068,-90.2910,460.2,67.6,11144222
BP,ioos:station:wmo:42369:3,2021-04-06T05:20:00Z,27.2068,-90.2910,460.4,67.6,11144222
BP,ioos:station:wmo:42369:3,2021-04-06T05:40:00Z,27.2067,-90.2910,460.1,67.6,11144222
BP,ioos:station:wmo:42369:3,2021-04-06T06:00:00Z,27.2066,-90.2910,460.9,67.6,11144222
BP,ioos:station:wmo:42369:3,2021-04-06T06:20:00Z,27.2064,-90.2910,459.5,67.6,11144222
BP,ioos:station:wmo:42369:3,2021-04-06T06:40:00Z,27.2064,-90.2910,460.5,67.6,11144222
BP,ioos:station:wmo:42369:3,2021-04-06T07:00:00Z,27.2064,-90.2911,460.3,67.6,11144222
BP,ioos:station:wmo:42369:3,2021-04-06T07:20:00Z,27.2064,-90.2911,461.5,67.6,11144222
BP,ioos:station:wmo:42369:3,2021-04-06T07:40:00Z,27.2063,-90.2911,461.6,67.6,11144222
BP,ioos:station:wmo:42369:3,2021-04-06T08:00:00Z,27.2063,-90.2911,461.0,67.6,11144222
BP,ioos:station:wmo:42369:3,2021-04-06T08:20:00Z,27.2063,-90.2911,460.4,67.6,11144222
BP,ioos:station:wmo:42369:3,2021-04-06T08:40:00Z,27.2062,-90.2911,461.1,67.6,11144222
BP,ioos:station:wmo:42369:3,2021-04-06T09:00:00Z,27.2063,-90.2911,461.8,67.6,11144222
BP,ioos:station:wmo:42369:3,2021-04-06T09:20:00Z,27.2062,-90.2911,461.1,67.6,11144222
BP,ioos:station:wmo:42369:3,2021-04-06T09:40:00Z,27.2062,-90.2911,460.7,67.6,11144222
BP,ioos:station:wmo:42369:3,2021-04-06T10:00:00Z,27.2061,-90.2911,460.6,67.6,11144222
BP,ioos:station:wmo:42369:3,2021-04-06T10:20:00Z,27.2062,-90.2912,461.0,67.6,11144222
BP,ioos:station:wmo:42369:3,2021-04-06T10:40:00Z,27.2061,-90.2911,461.2,67.6,11144222
BP,ioos:station:wmo:42369:3,2021-04-06T11:00:00Z,27.2062,-90.2911,460.7,67.6,11144222
BP,ioos:station:wmo:42369:3,2021-04-06T11:20:00Z,27.2062,-90.2911,461.3,67.6,11144222
BP,ioos:station:wmo:42369:3,2021-04-06T11:40:00Z,27.2061,-90.2912,462.2,67.6,11144222
BP,ioos:station:wmo:42369:3,2021-04-06T12:00:00Z,27.2061,-90.2912,461.1,67.6,11144222
BP,ioos:station:wmo:42369:3,2021-04-06T12:20:00Z,27.2061,-90.2912,460.8,67.6,11144222
BP,ioos:station:wmo:42369:3,2021-04-06T12:40:00Z,27.2060,-90.2911,460.5,67.6,11144222
BP,ioos:station:wmo:42369:3,2021-04-06T13:00:00Z,27.2061,-90.2912,461.6,67.6,11144222
BP,ioos:station:wmo:42369:3,2021-04-06T13:20:00Z,27.2061,-90.2912,461.9,67.6,11144222
BP,ioos:station:wmo:42369:3,2021-04-06T13:40:00Z,27.2061,-90.2913,461.2,67.6,11144222
BP,ioos:station:wmo:42369:3,2021-04-06T14:00:00Z,27.2061,-90.2912,463.1,67.6,11144222
BP,ioos:station:wmo:42369:3,2021-04-06T14:20:00Z,27.2061,-90.2912,460.2,67.6,11144222
BP,ioos:station:wmo:42369:3,2021-04-06T14:40:00Z,27.2061,-90.2912,460.7,67.6,11144222
BP,ioos:station:wmo:42369:3,2021-04-06T15:00:00Z,27.2062,-90.2911,459.6,67.6,11144222
BP,ioos:station:wmo:42369:3,2021-04-06T15:20:00Z,27.2062,-90.2912,458.0,67.6,11144222
BP,ioos:station:wmo:42369:3,2021-04-06T15:40:00Z,27.2061,-90.2912,459.3,67.6,11144222
BP,ioos:station:wmo:42369:3,2021-04-06T16:00:00Z,27.2061,-90.2912,459.5,67.6,11144222
BP,ioos:station:wmo:42369:3,2021-04-06T16:20:00Z,27.2061,-90.2912,458.4,67.6,11144222
BP,ioos:station:wmo:42369:3,2021-04-06T16:40:00Z,27.2061,-90.2912,458.4,67.6,11144222
BP,ioos:station:wmo:42369:3,2021-04-06T17:00:00Z,27.2061,-90.2912,458.2,67.6,11144222
BP,ioos:station:wmo:42369:3,2021-04-06T17:20:00Z,27.2061,-90.2912,457.5,67.6,11144222
BP,ioos:station:wmo:42369:3,2021-04-06T17:40:00Z,27.2062,-90.2912,457.6,67.6,11144222
BP,ioos:station:wmo:42369:3,2021-04-06T18:00:00Z,27.2062,-90.2912,458.5,67.6,11144222
BP,ioos:station:wmo:42369:3,2021-04-06T18:20:00Z,27.2064,-90.2912,457.7,67.6,11144222
BP,ioos:station:wmo:42369:3,2021-04-06T18:40:00Z,27.2064,-90.2912,457.4,67.6,11144222
BP,ioos:station:wmo:42369:3,2021-04-06T19:00:00Z,27.2064,-90.2912,457.4,67.6,11144222
BP,ioos:station:wmo:42369:3,2021-04-06T19:20:00Z,27.2066,-90.2912,457.5,67.6,11144222
BP,ioos:station:wmo:42369:3,2021-04-06T19:40:00Z,27.2067,-90.2912,457.3,67.6,11144222
BP,ioos:station:wmo:42369:3,2021-04-06T20:00:00Z,27.2067,-90.2912,456.3,67.6,11144222
BP,ioos:station:wmo:42369:3,2021-04-06T20:20:00Z,27.2067,-90.2911,456.8,67.6,11144222
BP,ioos:station:wmo:42369:3,2021-04-06T20:40:00Z,27.2068,-90.2911,456.0,67.6,11144222
BP,ioos:station:wmo:42369:3,2021-04-06T21:00:00Z,27.2069,-90.2911,456.5,67.6,11144222
BP,ioos:station:wmo:42369:3,2021-04-06T21:20:00Z,27.2070,-90.2911,456.2,67.6,11144222
BP,ioos:station:wmo:42369:3,2021-04-06T21:40:00Z,27.2070,-90.2911,456.9,67.6,11144222
BP,ioos:station:wmo:42369:3,2021-04-06T22:00:00Z,27.2071,-90.2911,456.9,67.6,11144222
BP,ioos:station:wmo:42369:3,2021-04-06T22:20:00Z,27.2071,-90.2911,456.8,67.6,11144222
BP,ioos:station:wmo:42369:3,2021-04-06T22:40:00Z,27.2071,-90.2910,455.6,67.6,11144222
BP,ioos:station:wmo:42369:3,2021-04-06T23:00:00Z,27.2072,-90.2909,454.1,67.6,11144222
BP,ioos:station:wmo:42369:3,2021-04-06T23:20:00Z,27.2072,-90.2909,455.2,67.6,11144222
BP,ioos:station:wmo:42369:3,2021-04-06T23:40:00Z,27.2072,-90.2909,455.7,67.6,11144222
BP,ioos:station:wmo:42369:3,2021-04-07T00:20:00Z,27.2071,-90.2909,454.7,67.6,11144222
BP,ioos:station:wmo:42369:3,2021-04-07T00:40:00Z,27.2071,-90.2909,454.2,67.6,11144222
BP,ioos:station:wmo:42369:3,2021-04-07T01:20:00Z,27.2071,-90.2909,455.0,67.6,11144222
BP,ioos:station:wmo:42369:3,2021-04-07T01:40:00Z,27.2071,-90.2909,454.7,67.6,11144222
BP,ioos:station:wmo:42369:3,2021-04-07T02:00:00Z,27.2071,-90.2909,454.7,67.6,11144222
BP,ioos:station:wmo:42369:3,2021-04-07T02:20:00Z,27.2072,-90.2910,454.6,67.6,11144222
BP,ioos:station:wmo:42369:3,2021-04-07T03:00:00Z,27.2077,-90.2909,456.5,67.6,11144222
BP,ioos:station:wmo:42369:3,2021-04-07T03:20:00Z,27.2079,-90.2909,456.5,67.6,11144222
BP,ioos:station:wmo:42369:3,2021-04-07T04:40:00Z,27.2083,-90.2908,456.7,67.6,11144222
BP,ioos:station:wmo:42369:3,2021-04-07T05:00:00Z,27.2082,-90.2908,455.4,67.6,11144222
BP,ioos:station:wmo:42369:3,2021-04-07T07:00:00Z,27.2083,-90.2907,455.9,67.6,11144222
BP,ioos:station:wmo:42369:3,2021-04-07T07:20:00Z,27.2083,-90.2906,455.6,67.6,11144222
BP,ioos:station:wmo:42369:3,2021-04-07T07:40:00Z,27.2083,-90.2906,456.4,67.6,11144222
BP,ioos:station:wmo:42369:3,2021-04-07T08:00:00Z,27.2083,-90.2906,456.8,67.6,11144222
BP,ioos:station:wmo:42369:3,2021-04-07T08:20:00Z,27.2082,-90.2906,456.2,67.6,11144222
BP,ioos:station:wmo:42369:3,2021-04-07T09:00:00Z,27.2079,-90.2906,455.8,67.6,11144222
BP,ioos:station:wmo:42369:3,2021-04-07T09:20:00Z,27.2078,-90.2906,456.2,67.6,11144222
BP,ioos:station:wmo:42369:3,2021-04-07T09:40:00Z,27.2078,-90.2906,455.7,67.6,11144222
BP,ioos:station:wmo:42369:3,2021-04-07T10:00:00Z,27.2077,-90.2906,456.7,67.6,11144222
BP,ioos:station:wmo:42369:3,2021-04-07T10:20:00Z,27.2076,-90.2907,455.9,67.6,11144222
BP,ioos:station:wmo:42369:3,2021-04-07T11:00:00Z,27.2074,-90.2907,454.9,67.6,11144222
BP,ioos:station:wmo:42369:3,2021-04-07T11:20:00Z,27.2073,-90.2907,455.5,67.6,11144222
BP,ioos:station:wmo:42369:3,2021-04-07T11:40:00Z,27.2071,-90.2908,456.7,67.6,11144222
BP,ioos:station:wmo:42369:3,2021-04-07T12:20:00Z,27.2069,-90.2908,455.4,67.6,11144222
BP,ioos:station:wmo:42369:3,2021-04-07T12:40:00Z,27.2069,-90.2908,455.2,67.6,11144222
BP,ioos:station:wmo:42369:3,2021-04-07T13:00:00Z,27.2069,-90.2908,455.3,67.6,11144222
BP,ioos:station:wmo:42369:3,2021-04-07T13:20:00Z,27.2068,-90.2908,454.5,67.6,11144222
BP,ioos:station:wmo:42369:3,2021-04-07T13:40:00Z,27.2068,-90.2909,456.5,67.6,11144222
BP,ioos:station:wmo:42369:3,2021-04-07T14:00:00Z,27.2067,-90.2908,455.0,67.6,11144222
BP,ioos:station:wmo:42369:3,2021-04-07T14:20:00Z,27.2066,-90.2908,454.7,67.6,11144222
BP,ioos:station:wmo:42369:3,2021-04-07T14:40:00Z,27.2065,-90.2908,456.0,67.6,11144222
BP,ioos:station:wmo:42369:3,2021-04-07T15:00:00Z,27.2065,-90.2908,454.9,67.6,11144222
BP,ioos:station:wmo:42369:3,2021-04-07T15:20:00Z,27.2066,-90.2907,454.7,67.6,11144222
BP,ioos:station:wmo:42369:3,2021-04-07T15:40:00Z,27.2066,-90.2907,454.5,67.6,11144222
BP,ioos:station:wmo:42369:3,2021-04-07T16:00:00Z,27.2066,-90.2907,454.6,67.6,11144222
BP,ioos:station:wmo:42369:3,2021-04-07T16:20:00Z,27.2067,-90.2907,454.3,67.6,11144222
BP,ioos:station:wmo:42369:3,2021-04-07T16:40:00Z,27.2067,-90.2907,454.0,67.6,11144222
BP,ioos:station:wmo:42369:3,2021-04-07T17:00:00Z,27.2067,-90.2907,454.2,67.6,11144222
BP,ioos:station:wmo:42369:3,2021-04-07T17:20:00Z,27.2067,-90.2907,453.8,67.6,11144222
BP,ioos:station:wmo:42369:3,2021-04-07T17:40:00Z,27.2068,-90.2907,453.3,67.6,11144222
BP,ioos:station:wmo:42369:3,2021-04-07T18:00:00Z,27.2069,-90.2907,453.1,67.6,11144222
BP,ioos:station:wmo:42369:3,2021-04-07T18:20:00Z,27.2071,-90.2907,453.5,67.6,11144222
BP,ioos:station:wmo:42369:3,2021-04-07T18:40:00Z,27.2072,-90.2906,454.0,67.6,11144222
BP,ioos:station:wmo:42369:3,2021-04-07T19:00:00Z,27.2073,-90.2906,452.5,67.6,11144222
BP,ioos:station:wmo:42369:3,2021-04-07T19:20:00Z,27.2073,-90.2906,452.1,67.6,11144222
BP,ioos:station:wmo:42369:3,2021-04-07T20:00:00Z,27.2072,-90.2907,451.7,67.6,11144222
BP,ioos:station:wmo:42369:3,2021-04-07T20:20:00Z,27.2072,-90.2907,453.1,67.6,11144222
BP,ioos:station:wmo:42369:3,2021-04-07T20:40:00Z,27.2072,-90.2907,452.1,67.6,11144222
BP,ioos:station:wmo:42369:3,2021-04-07T21:00:00Z,27.2073,-90.2907,452.1,67.6,11144222
BP,ioos:station:wmo:42369:3,2021-04-07T21:20:00Z,27.2073,-90.2907,452.7,67.6,11144222
BP,ioos:station:wmo:42369:3,2021-04-07T21:40:00Z,27.2074,-90.2907,452.4,67.6,11144222
BP,ioos:station:wmo:42369:3,2021-04-07T22:00:00Z,27.2074,-90.2907,452.7,67.6,11144222
BP,ioos:station:wmo:42369:3,2021-04-07T22:20:00Z,27.2075,-90.2906,452.2,67.6,11144222
BP,ioos:station:wmo:42369:3,2021-04-07T22:40:00Z,27.2075,-90.2906,452.9,67.6,11144222
BP,ioos:station:wmo:42369:3,2021-04-07T23:00:00Z,27.2075,-90.2906,452.7,67.6,11144222
BP,ioos:station:wmo:42369:3,2021-04-07T23:20:00Z,27.2075,-90.2906,451.7,67.6,11144222
BP,ioos:station:wmo:42369:3,2021-04-07T23:40:00Z,27.2075,-90.2906,452.5,67.6,11144222
BP,ioos:station:wmo:42369:3,2021-04-08T00:20:00Z,27.2076,-90.2905,452.2,67.6,11144222
BP,ioos:station:wmo:42369:3,2021-04-08T00:40:00Z,27.2079,-90.2905,452.4,67.6,11144222
BP,ioos:station:wmo:42369:3,2021-04-08T01:00:00Z,27.2079,-90.2905,452.0,67.6,11144222
BP,ioos:station:wmo:42369:3,2021-04-08T01:20:00Z,27.2080,-90.2905,452.1,67.6,11144222
BP,ioos:station:wmo:42369:3,2021-04-08T01:40:00Z,27.2082,-90.2905,452.6,67.6,11144222
BP,ioos:station:wmo:42369:3,2021-04-08T02:00:00Z,27.2083,-90.2904,452.2,67.6,11144222
BP,ioos:station:wmo:42369:3,2021-04-08T02:20:00Z,27.2085,-90.2903,451.5,67.5,11144222
BP,ioos:station:wmo:42369:3,2021-04-08T03:20:00Z,27.2087,-90.2902,451.9,67.4,11144222
BP,ioos:station:wmo:42369:3,2021-04-08T03:40:00Z,27.2088,-90.2902,453.0,67.4,11144222
BP,ioos:station:wmo:42369:3,2021-04-08T04:00:00Z,27.2088,-90.2902,452.5,67.4,11144222
BP,ioos:station:wmo:42369:3,2021-04-08T04:20:00Z,27.2089,-90.2902,453.4,67.4,11144222
BP,ioos:station:wmo:42369:3,2021-04-08T04:40:00Z,27.2089,-90.2901,451.7,67.4,11144222
BP,ioos:station:wmo:42369:3,2021-04-08T05:00:00Z,27.2090,-90.2900,452.4,67.4,11144222
BP,ioos:station:wmo:42369:3,2021-04-08T05:20:00Z,27.2092,-90.2900,452.6,67.4,11144222
BP,ioos:station:wmo:42369:3,2021-04-08T05:40:00Z,27.2092,-90.2899,451.7,67.4,11144222
BP,ioos:station:wmo:42369:3,2021-04-08T06:20:00Z,27.2094,-90.2896,452.6,67.4,11144222
BP,ioos:station:wmo:42369:3,2021-04-08T06:40:00Z,27.2095,-90.2895,451.8,67.4,11144222
BP,ioos:station:wmo:42369:3,2021-04-08T07:40:00Z,27.2098,-90.2893,450.9,67.4,11144222
BP,ioos:station:wmo:42369:3,2021-04-08T08:00:00Z,27.2099,-90.2892,451.8,67.4,11144222
BP,ioos:station:wmo:42369:3,2021-04-08T08:20:00Z,27.2100,-90.2891,451.2,67.4,11144222
BP,ioos:station:wmo:42369:3,2021-04-08T08:40:00Z,27.2100,-90.2890,450.8,67.4,11144222
BP,ioos:station:wmo:42369:3,2021-04-08T09:00:00Z,27.2099,-90.2890,451.3,67.4,11144222
BP,ioos:station:wmo:42369:3,2021-04-08T10:00:00Z,27.2094,-90.2892,450.2,67.4,11144222
BP,ioos:station:wmo:42369:3,2021-04-08T10:20:00Z,27.2092,-90.2892,451.0,67.5,11144222
BP,ioos:station:wmo:42369:3,2021-04-08T10:40:00Z,27.2090,-90.2893,450.8,67.4,11144222
BP,ioos:station:wmo:42369:3,2021-04-08T11:20:00Z,27.2087,-90.2895,450.1,67.5,11144222